Location: Branson Observatory
(36.6451°N, 93.2213°W)
Time: 17:55:12
(UTC-05:00)

OTV 5 (USA 277) - Visible Passes

Search period start: 17 October 2018 00:00
Search period end: 27 October 2018 00:00
Orbit: 387 x 394 km, 54.5° (Epoch: 08 September)

Date Brightness Start Highest point End Pass type
(mag) Time Alt. Az. Time Alt. Az. Time Alt. Az.
17 Oct ? 05:47:00 37° N 05:47:45 46° NE 05:50:50 10° ESE visible
18 Oct ? 04:53:28 11° E 04:53:28 11° E 04:53:44 10° E visible
18 Oct ? 06:25:54 21° W 06:27:08 28° SW 06:29:55 10° S visible
19 Oct ? 05:32:31 25° SE 05:32:31 25° SE 05:34:00 10° SE visible
20 Oct ? 06:11:41 10° SSW 06:11:41 10° SSW 06:11:44 10° SSW visible
21 Oct ? 20:09:54 10° SSW 20:10:50 17° SSW 20:10:50 17° SSW visible
22 Oct ? 19:14:43 10° SSE 19:16:39 15° SE 19:17:21 14° ESE visible
22 Oct ? 20:49:21 10° WSW 20:49:47 13° WSW 20:49:47 13° WSW visible
23 Oct ? 19:52:41 10° SW 19:55:52 89° SE 19:56:08 73° NE visible
24 Oct ? 18:56:40 10° SSW 18:59:32 32° SE 19:02:22 10° ENE visible
24 Oct ? 20:33:04 10° W 20:34:47 18° NW 20:34:47 18° NW visible
25 Oct ? 19:35:53 10° WSW 19:38:56 41° NW 19:40:53 19° NNE visible
26 Oct ? 20:17:21 10° WNW 20:18:46 12° NNW 20:19:15 12° NNW visible
